Location: Arbon
(43.0005°N, 0.7472°E)
Time: 21:54:33
(UTC+00:00)

Explorer 7 - Pass Details

Date: 03 December 2020
Orbit: 484 x 678 km, 50.3° (Epoch: 25 January)

Event Time Altitude Azimuth Distance (km) Brightness Sun altitude
Rises 03:12:21 0° 287° (WNW) 2,900 - -42.8°
Reaches altitude 10° 03:14:57 10° 298° (WNW) 1,959 - -42.4°
Maximum altitude 03:18:57 31° 1° (N) 1,043 - -41.7°
Drops below altitude 10° 03:22:43 10° 64° (ENE) 1,847 - -41.0°
Exits shadow 03:23:40 - 70° (ENE) 2,184 10.6 -40.8°
Sets 03:25:05 0° 75° (ENE) 2,706 11.2 -40.5°
